User: anonymous   Login
Location: Unspecified
(0.0000°N, 0.0000°E)
Time: 23:30:32
(UTC+00:00)
Language:

USA 113 - Orbit

View from above orbital plane
View from above orbital plane
View from above satellite
View from above satellite

Ground track
Ground track

The orbit data is extracted from the following two-line orbital elements,

1 23628U 95038A   17326.64383414 0.00000000  00000-0  00000-0 0    01
2 23628  10.5067  37.3545 0005836 132.0890 227.9769  1.00270000    06
Epoch (UTC): 22 November 2017 15:27:07
Eccentricity: 0.0005836
inclination: 10.5067°
perigee height: 35762 km
apogee height: 35811 km
right ascension of ascending node: 37.3545°
argument of perigee: 132.0890°
revolutions per day: 1.00270000
mean anomaly at epoch: 227.9769°
orbit number at epoch: 0

The dashed part of the orbit path shows where the satellite is in the earth's shadow,  

DLR